User: anonymous   Login
Location: Zagreb
(45.8000°N, 16.0000°E)
Time: 11:58:47
(UTC+01:00)
Language:

SR - Orbit

View from above orbital plane
View from above orbital plane
View from above satellite
View from above satellite

Ground track
Ground track

The orbit data is extracted from the following two-line orbital elements,

1    46U 60007B   22019.13861896  .00000420  00000-0  10687-3 0  9990
2    46  66.6905 277.2846 0203602  57.0998 304.9517 14.49506351223252
Epoch (UTC): 19 January 2022 03:19:36
Eccentricity: 0.0203602
inclination: 66.6905°
perigee height: 582 km
apogee height: 872 km
right ascension of ascending node: 277.2846°
argument of perigee: 57.0998°
revolutions per day: 14.49506351
mean anomaly at epoch: 304.9517°
orbit number at epoch: 22325

The dashed part of the orbit path shows where the satellite is in the earth's shadow,  

DLR